Weather Roundup
Issued by NWS Corpus Christi, TX

Home | Current Version | Previous Version | Text Only | Print | Product List | Glossary On
Versions: 1 2 3 4 5 6 7 8 9 10 11 12 13 14 15 16 17 18 19 20 21 22 23 24 25 26 27 28 29 30 31 32 33 34 35 36 37 38 39 40 41 42 43 44 45 46 47 48 49 50
000
ASUS44 KCRP 280810
HRRCRP

SOUTH TEXAS REGIONAL WEATHER ROUNDUP
NATIONAL WEATHER SERVICE CORPUS CHRISTI TX
300 AM CDT THU MAY 28 2015


TXZ229>244-280900-
...CORPUS CHRISTI AREA OBSERVATIONS...

CITY           SKY/WX    TMP DP  RH WIND       PRES   REMARKS
CORPUS CHRISTI MOCLDY    80  76  87 SE13      29.99F
NAS CORPUS CHR CLOUDY    81  77  88 SE14G23   29.99S
ROCKPORT       CLOUDY    82  76  81 SE16      29.99F
KINGSVILLE NAS CLOUDY    81  79  94 SE13      29.98F HX  90
ALICE          CLOUDY    78  76  93 SE6       29.98F FOG
FALFURRIAS     MOCLDY    78  76  92 SE3       29.97F
$$

...VICTORIA AREA OBSERVATIONS...

CITY           SKY/WX    TMP DP  RH WIND       PRES   REMARKS
VICTORIA       CLOUDY    75  74  96 SE3       30.03S
BEEVILLE       LGT RAIN  77  77 100 E5        30.01S
PLEASANTON     CLOUDY    76  73  92 E6        30.01F
SAN ANTONIO    CLOUDY    76  72  87 SE13      30.04F
$$

...LAREDO AREA OBSERVATIONS...

CITY           SKY/WX    TMP DP  RH WIND       PRES   REMARKS
LAREDO         CLEAR     78  74  87 SE12      29.97F
COTULLA        CLOUDY    78  74  87 SE9       29.98F
DEL RIO        CLOUDY    77  72  84 SE16G23   29.95F
MCALLEN        CLOUDY    82  77  84 SE10      29.97F HX  90
HEBBRONVILLE     N/A     78  74  89 SE10G18   29.99F
$$

...OTHER TEXAS OBSERVATIONS...

CITY           SKY/WX    TMP DP  RH WIND       PRES   REMARKS
BROWNSVILLE    CLOUDY    81  77  88 SE13G20   29.97F
HOUSTON        PTCLDY    73  71  93 CALM      30.03F
COL. STATION   MOCLDY    73  70  90 S6        30.04F
AUSTIN         CLOUDY    74  72  93 S6        30.03F
WACO           MOCLDY    73  71  93 S7        30.03R
FORT WORTH     MOCLDY    74  71  91 S10       30.02F
WICHITA FALLS  CLOUDY    69  65  86 E6        30.03R
LUBBOCK        PTCLDY    67  64  90 E10       30.04R
EL PASO        CLOUDY    76  50  40 CALM      29.99F
$$

...MARINE OBSERVATIONS...

STATION/POSITION TIME  SKY/WX   TEMP    WIND        PRES    VSBY  WAVE   SWELL
                                AIR SEA DIR/SP/G                  HT/PER HT/PER
                 (UTC)          (F)     (DEG/KT/KT) (MB)    (MI)  (FT/S) (FT/S)
PORT ARANSAS     0800            81 82  140/ 17/ 19 1015.9F
BUOY 90 E PORT A 0750            80 80  150/ 16/ 17 1016.5F         5/ 7   2/ 7
BUOY 45 SE BAFFI 0750            81 82  150/ 16/ 19 1014.9F         6/ 7   2/14
BUOY 200 E PT IS 0750            81 81  140/ 10/ 12 1016.6F         5/ 7   3/ 7
BUOY 15 E GALVES 0750            79 80  130/ 10/ 12 1016.4F         3/ 5   2/ 5
$$


USA.gov is the U.S. government's official web portal to all federal, state and local government web resources and services.